Time,TemperatureF,DewpointF,PressureIn,WindDirection,WindDirectionDegrees,WindSpeedMPH,WindSpeedGustMPH,Humidity,HourlyPrecipIn,Conditions,Clouds,dailyrainin,SoftwareType,DateUTC
2013-07-16 16:05:00,94.5,68.5,30.10,North,354,4.0,11.0,43,0.00,,,0.00,meteohub,2013-07-16 20:05:00,
2013-07-16 16:06:00,94.5,69.3,30.10,ENE,58,6.0,11.0,44,0.00,,,0.00,meteohub,2013-07-16 20:06:00,
2013-07-16 16:11:00,94.3,69.1,30.10,North,4,7.0,9.0,44,0.00,,,0.00,meteohub,2013-07-16 20:11:00,
2013-07-16 16:16:00,95.0,68.4,30.10,NNW,339,7.0,10.0,42,0.00,,,0.00,meteohub,2013-07-16 20:16:00,
2013-07-16 16:21:00,95.2,68.5,30.10,WNW,303,5.0,10.0,42,0.00,,,0.00,meteohub,2013-07-16 20:21:00,
2013-07-16 16:26:00,94.6,69.3,30.09,North,1,3.0,10.0,44,0.00,,,0.00,meteohub,2013-07-16 20:26:00,
2013-07-16 16:32:00,95.0,70.3,30.10,ENE,58,5.0,9.0,45,0.00,,,0.00,meteohub,2013-07-16 20:32:00,
2013-07-16 16:37:00,94.5,69.8,30.09,ESE,119,2.0,8.0,45,0.00,,,0.00,meteohub,2013-07-16 20:37:00,
2013-07-16 16:42:00,95.5,70.2,30.09,North,6,2.0,7.0,44,0.00,,,0.00,meteohub,2013-07-16 20:42:00,
2013-07-16 16:46:00,95.2,70.5,30.09,NE,53,0.0,8.0,45,0.00,,,0.00,meteohub,2013-07-16 20:46:00,
2013-07-16 16:52:00,94.6,70.0,30.09,NE,53,3.0,8.0,45,0.00,,,0.00,meteohub,2013-07-16 20:52:00,
2013-07-16 16:57:00,93.9,69.3,30.09,NW,316,4.0,8.0,45,0.00,,,0.00,meteohub,2013-07-16 20:57:00,
2013-07-16 17:02:00,93.6,69.6,30.09,North,355,3.0,9.0,46,0.00,,,0.00,meteohub,2013-07-16 21:02:00,
2013-07-16 17:07:00,93.7,70.5,30.09,NE,56,5.0,9.0,47,0.00,,,0.00,meteohub,2013-07-16 21:07:00,
2013-07-16 17:12:00,93.6,69.1,30.09,NE,53,6.0,9.0,45,0.00,,,0.00,meteohub,2013-07-16 21:12:00,
2013-07-16 17:17:00,93.6,69.1,30.09,ENE,60,7.0,13.0,45,0.00,,,0.00,meteohub,2013-07-16 21:17:00,
2013-07-16 17:22:00,93.4,69.4,30.09,NNW,345,3.0,13.0,46,0.00,,,0.00,meteohub,2013-07-16 21:22:00,
2013-07-16 17:27:00,93.6,69.1,30.09,NNE,13,7.0,13.0,45,0.00,,,0.00,meteohub,2013-07-16 21:27:00,
2013-07-16 17:32:00,93.6,69.6,30.09,NNW,348,3.0,10.0,46,0.00,,,0.00,meteohub,2013-07-16 21:32:00,
2013-07-16 17:37:00,93.7,69.3,30.09,NNE,25,4.0,10.0,45,0.00,,,0.00,meteohub,2013-07-16 21:37:00,
2013-07-16 17:42:00,93.6,69.1,30.08,NE,53,2.0,10.0,45,0.00,,,0.00,meteohub,2013-07-16 21:42:00,
2013-07-16 17:47:00,93.7,69.3,30.09,NW,316,5.0,9.0,45,0.00,,,0.00,meteohub,2013-07-16 21:47:00,
2013-07-16 17:52:00,93.7,69.8,30.09,NNW,338,2.0,10.0,46,0.00,,,0.00,meteohub,2013-07-16 21:52:00,
2013-07-16 17:57:00,94.1,69.4,30.09,North,8,5.0,10.0,45,0.00,,,0.00,meteohub,2013-07-16 21:57:00,
2013-07-16 18:02:00,94.3,69.6,30.09,North,8,7.0,10.0,45,0.00,,,0.00,meteohub,2013-07-16 22:02:00,
2013-07-16 18:07:00,94.3,69.1,30.09,NW,323,4.0,7.0,44,0.00,,,0.00,meteohub,2013-07-16 22:07:00,
2013-07-16 18:12:00,94.5,68.5,30.09,NNE,16,4.0,7.0,43,0.00,,,0.00,meteohub,2013-07-16 22:12:00,
2013-07-16 18:17:00,94.5,69.3,30.09,North,353,9.0,9.0,44,0.00,,,0.00,meteohub,2013-07-16 22:17:00,
2013-07-16 18:22:00,93.9,68.0,30.09,WNW,298,3.0,9.0,43,0.00,,,0.00,meteohub,2013-07-16 22:22:00,
2013-07-16 18:27:00,93.7,67.8,30.09,NNW,330,7.0,9.0,43,0.00,,,0.00,meteohub,2013-07-16 22:27:00,
2013-07-16 18:32:00,93.7,68.5,30.09,NNW,331,9.0,11.0,44,0.00,,,0.00,meteohub,2013-07-16 22:32:00,
2013-07-16 18:37:00,93.6,69.1,30.09,North,353,2.0,11.0,45,0.00,,,0.00,meteohub,2013-07-16 22:37:00,
2013-07-16 18:42:00,93.6,68.4,30.09,NNE,16,3.0,11.0,44,0.00,,,0.00,meteohub,2013-07-16 22:42:00,
2013-07-16 18:47:00,93.7,68.5,30.09,NNE,25,3.0,11.0,44,0.00,,,0.00,meteohub,2013-07-16 22:47:00,
2013-07-16 18:52:00,93.7,68.5,30.09,NNE,14,2.0,9.0,44,0.00,,,0.00,meteohub,2013-07-16 22:52:00,
2013-07-16 18:57:00,93.6,68.4,30.09,NNW,330,3.0,8.0,44,0.00,,,0.00,meteohub,2013-07-16 22:57:00,
2013-07-16 19:02:00,93.7,68.5,30.09,NE,34,1.0,9.0,44,0.00,,,0.00,meteohub,2013-07-16 23:02:00,
2013-07-16 19:07:00,93.6,69.1,30.09,NNW,335,2.0,9.0,45,0.00,,,0.00,meteohub,2013-07-16 23:07:00,
2013-07-16 19:12:00,93.4,68.2,30.09,North,358,7.0,9.0,44,0.00,,,0.00,meteohub,2013-07-16 23:12:00,
2013-07-16 19:17:00,93.2,68.7,30.10,NNE,13,6.0,8.0,45,0.00,,,0.00,meteohub,2013-07-16 23:17:00,
2013-07-16 19:22:00,93.0,68.5,30.10,NNW,341,3.0,8.0,45,0.00,,,0.00,meteohub,2013-07-16 23:22:00,
2013-07-16 19:27:00,92.8,68.4,30.10,NW,321,4.0,8.0,45,0.00,,,0.00,meteohub,2013-07-16 23:27:00,
2013-07-16 19:32:00,92.8,69.1,30.10,NNW,334,5.0,8.0,46,0.00,,,0.00,meteohub,2013-07-16 23:32:00,
2013-07-16 19:37:00,92.7,68.9,30.10,NW,323,2.0,8.0,46,0.00,,,0.00,meteohub,2013-07-16 23:37:00,
2013-07-16 19:42:00,92.7,68.9,30.10,North,0,3.0,7.0,46,0.00,,,0.00,meteohub,2013-07-16 23:42:00,
2013-07-16 19:47:00,92.5,68.7,30.10,North,354,5.0,7.0,46,0.00,,,0.00,meteohub,2013-07-16 23:47:00,
2013-07-16 19:52:00,92.5,69.3,30.10,North,10,2.0,7.0,47,0.00,,,0.00,meteohub,2013-07-16 23:52:00,
2013-07-16 19:57:00,92.1,68.9,30.10,NW,314,3.0,7.0,47,0.00,,,0.00,meteohub,2013-07-16 23:57:00,
2013-07-16 20:02:00,91.9,69.4,30.11,NNW,340,3.0,7.0,48,0.00,,,0.00,meteohub,2013-07-17 00:02:00,
2013-07-16 20:07:00,91.6,69.8,30.11,NNW,340,3.0,7.0,49,0.00,,,0.00,meteohub,2013-07-17 00:07:00,
2013-07-16 20:12:00,91.4,69.6,30.11,NNW,343,2.0,6.0,49,0.00,,,0.00,meteohub,2013-07-17 00:12:00,
2013-07-16 20:17:00,91.0,69.8,30.10,North,8,3.0,6.0,50,0.00,,,0.00,meteohub,2013-07-17 00:17:00,
2013-07-16 20:22:00,91.0,69.3,30.10,North,1,1.0,6.0,49,0.00,,,0.00,meteohub,2013-07-17 00:22:00,
2013-07-16 20:27:00,90.9,69.6,30.11,NNW,345,2.0,5.0,50,0.00,,,0.00,meteohub,2013-07-17 00:27:00,
2013-07-16 20:32:00,90.7,69.4,30.11,NW,306,2.0,6.0,50,0.00,,,0.00,meteohub,2013-07-17 00:32:00,
2013-07-16 20:37:00,90.7,69.4,30.10,NW,311,1.0,6.0,50,0.00,,,0.00,meteohub,2013-07-17 00:37:00,
2013-07-16 21:29:00,89.2,69.3,30.11,NNW,346,1.0,3.0,52,0.00,,,0.00,meteohub,2013-07-17 01:29:00,
2013-07-16 21:34:00,89.1,69.1,30.11,NNE,16,1.0,3.0,52,0.00,,,0.00,meteohub,2013-07-17 01:34:00,
2013-07-16 21:39:00,89.1,69.1,30.11,NW,322,1.0,3.0,52,0.00,,,0.00,meteohub,2013-07-17 01:39:00,
2013-07-16 21:44:00,88.9,68.9,30.12,NNW,340,1.0,3.0,52,0.00,,,0.00,meteohub,2013-07-17 01:44:00,
2013-07-16 21:49:00,88.9,68.9,30.12,NNW,343,0.0,3.0,52,0.00,,,0.00,meteohub,2013-07-17 01:49:00,
2013-07-16 21:54:00,88.7,69.4,30.12,NNW,331,2.0,3.0,53,0.00,,,0.00,meteohub,2013-07-17 01:54:00,
2013-07-16 21:59:00,88.5,69.3,30.12,NNW,340,2.0,3.0,53,0.00,,,0.00,meteohub,2013-07-17 01:59:00,
2013-07-16 22:04:00,88.5,69.3,30.12,NNW,338,2.0,3.0,53,0.00,,,0.00,meteohub,2013-07-17 02:04:00,
2013-07-16 22:09:00,88.3,69.1,30.12,NNW,346,0.0,4.0,53,0.00,,,0.00,meteohub,2013-07-17 02:09:00,
2013-07-16 22:14:00,88.3,69.1,30.12,NW,320,2.0,4.0,53,0.00,,,0.00,meteohub,2013-07-17 02:14:00,
2013-07-16 22:19:00,88.2,68.9,30.12,North,356,2.0,3.0,53,0.00,,,0.00,meteohub,2013-07-17 02:19:00,
2013-07-16 22:24:00,88.2,68.9,30.12,NW,326,2.0,3.0,53,0.00,,,0.00,meteohub,2013-07-17 02:24:00,
2013-07-16 22:29:00,88.2,68.9,30.12,NNW,340,1.0,3.0,53,0.00,,,0.00,meteohub,2013-07-17 02:29:00,
2013-07-16 22:34:00,88.0,68.7,30.12,NNW,333,1.0,3.0,53,0.00,,,0.00,meteohub,2013-07-17 02:34:00,
2013-07-16 22:39:00,88.0,68.7,30.12,NNE,27,2.0,3.0,53,0.00,,,0.00,meteohub,2013-07-17 02:39:00,
2013-07-16 22:44:00,88.0,68.7,30.13,North,8,1.0,3.0,53,0.00,,,0.00,meteohub,2013-07-17 02:44:00,
2013-07-16 22:49:00,88.0,68.7,30.12,North,6,0.0,2.0,53,0.00,,,0.00,meteohub,2013-07-17 02:49:00,
2013-07-16 22:54:00,87.6,68.9,30.12,North,8,1.0,2.0,54,0.00,,,0.00,meteohub,2013-07-17 02:54:00,
2013-07-16 22:59:00,87.3,68.5,30.12,North,6,0.0,2.0,54,0.00,,,0.00,meteohub,2013-07-17 02:59:00,
2013-07-16 23:04:00,87.3,68.5,30.12,North,351,0.0,2.0,54,0.00,,,0.00,meteohub,2013-07-17 03:04:00,
2013-07-16 23:09:00,86.7,68.5,30.12,North,5,0.0,2.0,55,0.00,,,0.00,meteohub,2013-07-17 03:09:00,
2013-07-16 23:15:00,86.7,68.5,30.12,North,5,0.0,1.0,55,0.00,,,0.00,meteohub,2013-07-17 03:15:00,
2013-07-16 23:20:00,86.4,68.7,30.12,North,5,0.0,0.0,56,0.00,,,0.00,meteohub,2013-07-17 03:20:00,
2013-07-16 23:25:00,86.0,68.5,30.12,North,5,0.0,0.0,56,0.00,,,0.00,meteohub,2013-07-17 03:25:00,
2013-07-16 23:30:00,86.0,68.9,30.12,North,5,0.0,0.0,57,0.00,,,0.00,meteohub,2013-07-17 03:30:00,
2013-07-16 23:35:00,85.8,69.3,30.12,North,5,0.0,0.0,58,0.00,,,0.00,meteohub,2013-07-17 03:35:00,
2013-07-16 23:40:00,85.6,69.1,30.12,North,5,0.0,0.0,58,0.00,,,0.00,meteohub,2013-07-17 03:40:00,
2013-07-16 23:45:00,85.5,69.1,30.13,North,5,0.0,0.0,58,0.00,,,0.00,meteohub,2013-07-17 03:45:00,
2013-07-16 23:50:00,84.9,69.4,30.13,North,5,0.0,0.0,60,0.00,,,0.00,meteohub,2013-07-17 03:50:00,
2013-07-16 23:55:00,84.7,69.8,30.12,North,5,0.0,0.0,61,0.00,,,0.00,meteohub,2013-07-17 03:55:00,